TimeMST,TemperatureF,Dew PointF,Humidity,Sea Level PressureIn,VisibilityMPH,Wind Direction,Wind SpeedMPH,Gust SpeedMPH,PrecipitationIn,Events,Conditions,WindDirDegrees,DateUTC
12:15 AM,62.6,48.2,59,30.43,10.0,SSE,8.1,-,N/A,,Partly Cloudy,160,2013-08-17 07:15:00
12:35 AM,64.4,48.2,56,30.42,10.0,SSE,8.1,-,N/A,,Clear,160,2013-08-17 07:35:00
12:55 AM,62.6,48.2,59,30.42,10.0,SSE,8.1,-,N/A,,Clear,160,2013-08-17 07:55:00
1:15 AM,59.0,46.4,63,30.42,10.0,SSE,8.1,-,N/A,,Clear,150,2013-08-17 08:15:00
1:35 AM,60.8,46.4,59,30.42,10.0,SSE,8.1,-,N/A,,Clear,150,2013-08-17 08:35:00
1:55 AM,60.8,46.4,59,30.42,10.0,SSE,9.2,-,N/A,,Clear,150,2013-08-17 08:55:00
2:15 AM,59.0,46.4,63,30.41,10.0,SSE,9.2,-,N/A,,Clear,160,2013-08-17 09:15:00
2:35 AM,59.0,46.4,63,30.41,10.0,SSE,6.9,-,N/A,,Clear,150,2013-08-17 09:35:00
2:55 AM,57.2,46.4,67,30.41,10.0,SSE,5.8,-,N/A,,Clear,160,2013-08-17 09:55:00
3:15 AM,59.0,46.4,63,30.40,10.0,SSE,6.9,-,N/A,,Clear,150,2013-08-17 10:15:00
3:35 AM,59.0,46.4,63,30.40,10.0,SSE,6.9,-,N/A,,Clear,160,2013-08-17 10:35:00
3:55 AM,57.2,46.4,67,30.40,10.0,SSE,8.1,-,N/A,,Clear,160,2013-08-17 10:55:00
4:15 AM,57.2,46.4,67,30.40,10.0,SSE,8.1,-,N/A,,Clear,160,2013-08-17 11:15:00
4:35 AM,57.2,46.4,67,30.41,10.0,SSE,8.1,-,N/A,,Clear,160,2013-08-17 11:35:00
4:55 AM,57.2,46.4,67,30.41,10.0,SSE,6.9,-,N/A,,Clear,160,2013-08-17 11:55:00
5:15 AM,55.4,46.4,72,30.41,10.0,SSE,8.1,-,N/A,,Clear,160,2013-08-17 12:15:00
5:35 AM,55.4,46.4,72,30.41,10.0,SSE,6.9,-,N/A,,Clear,160,2013-08-17 12:35:00
5:55 AM,55.4,46.4,72,30.42,10.0,SSE,8.1,-,N/A,,Clear,150,2013-08-17 12:55:00
6:15 AM,57.2,46.4,67,30.43,10.0,SSE,6.9,-,N/A,,Clear,150,2013-08-17 13:15:00
6:35 AM,59.0,46.4,63,30.43,10.0,SSE,6.9,-,N/A,,Partly Cloudy,160,2013-08-17 13:35:00
6:55 AM,62.6,48.2,59,30.43,10.0,South,5.8,-,N/A,,Partly Cloudy,170,2013-08-17 13:55:00
7:15 AM,64.4,48.2,56,30.44,10.0,SSE,4.6,-,N/A,,Mostly Cloudy,160,2013-08-17 14:15:00
7:35 AM,68.0,48.2,49,30.44,10.0,SSE,5.8,-,N/A,,Partly Cloudy,150,2013-08-17 14:35:00
7:55 AM,71.6,50.0,46,30.44,10.0,SE,3.5,-,N/A,,Clear,140,2013-08-17 14:55:00
8:15 AM,75.2,48.2,38,30.44,10.0,ENE,3.5,-,N/A,,Partly Cloudy,60,2013-08-17 15:15:00
8:35 AM,77.0,48.2,36,30.44,10.0,WNW,3.5,-,N/A,,Partly Cloudy,300,2013-08-17 15:35:00
8:55 AM,77.0,46.4,34,30.44,10.0,WNW,4.6,-,N/A,,Scattered Clouds,300,2013-08-17 15:55:00
9:15 AM,77.0,48.2,36,30.44,10.0,West,3.5,-,N/A,,Scattered Clouds,280,2013-08-17 16:15:00
9:35 AM,77.0,48.2,36,30.44,10.0,NNW,4.6,-,N/A,,Scattered Clouds,340,2013-08-17 16:35:00
9:55 AM,80.6,46.4,30,30.44,10.0,Calm,Calm,-,N/A,,Partly Cloudy,0,2013-08-17 16:55:00
10:15 AM,78.8,46.4,32,30.44,10.0,Calm,Calm,-,N/A,,Scattered Clouds,0,2013-08-17 17:15:00
10:35 AM,78.8,46.4,32,30.44,10.0,SW,3.5,-,N/A,,Mostly Cloudy,220,2013-08-17 17:35:00
10:55 AM,82.4,46.4,28,30.43,10.0,WSW,3.5,-,N/A,,Scattered Clouds,250,2013-08-17 17:55:00
11:15 AM,82.4,46.4,28,30.42,10.0,NW,6.9,-,N/A,,Partly Cloudy,310,2013-08-17 18:15:00
11:35 AM,82.4,46.4,28,30.41,10.0,West,9.2,17.3,N/A,,Scattered Clouds,260,2013-08-17 18:35:00
11:55 AM,80.6,44.6,28,30.40,10.0,WNW,8.1,-,N/A,,Scattered Clouds,290,2013-08-17 18:55:00
12:15 PM,86.0,42.8,22,30.39,10.0,SW,9.2,-,N/A,,Scattered Clouds,220,2013-08-17 19:15:00
12:35 PM,86.0,41.0,20,30.38,10.0,WSW,12.7,20.7,N/A,,Partly Cloudy,240,2013-08-17 19:35:00
12:55 PM,82.4,42.8,25,30.38,10.0,West,8.1,-,N/A,,Partly Cloudy,260,2013-08-17 19:55:00
1:15 PM,84.2,44.6,25,30.37,10.0,West,8.1,-,N/A,,Mostly Cloudy,280,2013-08-17 20:15:00
1:35 PM,78.8,46.4,32,30.38,10.0,Calm,Calm,-,N/A,,Mostly Cloudy,0,2013-08-17 20:35:00
1:55 PM,77.0,48.2,36,30.37,10.0,West,17.3,24.2,N/A,,Mostly Cloudy,260,2013-08-17 20:55:00
2:15 PM,71.6,53.6,53,30.38,6.0,WSW,13.8,-,N/A,,Mostly Cloudy,250,2013-08-17 21:15:00
2:35 PM,66.2,53.6,64,30.40,9.0,SE,13.8,19.6,0.01,,Mostly Cloudy,140,2013-08-17 21:35:00
2:55 PM,62.6,55.4,77,30.42,3.0,SSE,9.2,18.4,0.03,,Mostly Cloudy,160,2013-08-17 21:55:00
3:15 PM,62.6,57.2,82,30.41,5.0,NE,5.8,-,0.02,,Mostly Cloudy,40,2013-08-17 22:15:00
3:35 PM,62.6,57.2,82,30.43,10.0,NE,6.9,-,0.02,,Overcast,40,2013-08-17 22:35:00
3:55 PM,62.6,59.0,88,30.41,10.0,NE,11.5,-,0.02,,Scattered Clouds,40,2013-08-17 22:55:00
4:15 PM,64.4,57.2,77,30.42,10.0,East,9.2,-,N/A,,Clear,90,2013-08-17 23:15:00
4:35 PM,62.6,55.4,77,30.42,10.0,ENE,10.4,16.1,N/A,,Partly Cloudy,60,2013-08-17 23:35:00
4:55 PM,62.6,55.4,77,30.42,10.0,NE,11.5,18.4,N/A,,Partly Cloudy,50,2013-08-17 23:55:00
5:15 PM,62.6,55.4,77,30.43,10.0,ENE,8.1,-,N/A,,Partly Cloudy,70,2013-08-18 00:15:00
5:35 PM,62.6,55.4,77,30.43,10.0,East,10.4,-,N/A,,Mostly Cloudy,80,2013-08-18 00:35:00
5:55 PM,64.4,53.6,68,30.43,10.0,ENE,3.5,-,N/A,,Mostly Cloudy,70,2013-08-18 00:55:00
6:15 PM,64.4,53.6,68,30.44,10.0,West,3.5,-,N/A,,Mostly Cloudy,260,2013-08-18 01:15:00
6:35 PM,62.6,55.4,77,30.47,10.0,West,5.8,-,N/A,,Overcast,280,2013-08-18 01:35:00
6:55 PM,59.0,55.4,88,30.47,5.0,SSW,5.8,-,0.03,,Mostly Cloudy,210,2013-08-18 01:55:00
7:15 PM,59.0,53.6,82,30.47,6.0,East,5.8,-,0.01,,Mostly Cloudy,90,2013-08-18 02:15:00
7:35 PM,59.0,55.4,88,30.46,10.0,ESE,4.6,-,0.03,,Mostly Cloudy,110,2013-08-18 02:35:00
7:55 PM,59.0,55.4,88,30.45,10.0,SE,10.4,-,0.03,,Overcast,130,2013-08-18 02:55:00
8:15 PM,57.2,55.4,94,30.43,10.0,SE,18.4,-,N/A,,Mostly Cloudy,130,2013-08-18 03:15:00
8:35 PM,59.0,55.4,88,30.43,10.0,SE,16.1,24.2,N/A,,Scattered Clouds,140,2013-08-18 03:35:00
8:55 PM,59.0,53.6,82,30.42,10.0,SE,16.1,27.6,N/A,,Scattered Clouds,140,2013-08-18 03:55:00
9:15 PM,59.0,53.6,82,30.40,10.0,South,11.5,-,N/A,,Clear,170,2013-08-18 04:15:00
9:35 PM,59.0,51.8,77,30.41,10.0,SE,13.8,-,N/A,,Clear,140,2013-08-18 04:35:00
9:55 PM,59.0,53.6,82,30.41,10.0,SSE,15.0,18.4,N/A,,Clear,150,2013-08-18 04:55:00
10:15 PM,59.0,51.8,77,30.40,10.0,SSE,12.7,-,N/A,,Clear,160,2013-08-18 05:15:00
10:35 PM,59.0,51.8,77,30.40,10.0,ESE,12.7,-,N/A,,Clear,120,2013-08-18 05:35:00
10:55 PM,59.0,50.0,72,30.39,10.0,SSE,13.8,-,N/A,,Clear,150,2013-08-18 05:55:00
11:15 PM,59.0,50.0,72,30.39,10.0,SE,9.2,-,N/A,,Clear,130,2013-08-18 06:15:00
11:35 PM,59.0,51.8,77,30.39,10.0,SE,8.1,-,N/A,,Clear,130,2013-08-18 06:35:00
11:55 PM,59.0,50.0,72,30.39,10.0,SE,10.4,-,N/A,,Clear,130,2013-08-18 06:55:00